Location: Unspecified
(0.0000°N, 0.0000°E)
Time: 18:59:46
(UTC+00:00)

deb Briz - Pass Details

Date: 19 February 2026
Orbit: 1858 x 2172 km, 64.9° (Epoch: 11 March)

Event Time Altitude Azimuth Distance (km) Brightness Sun altitude
Rises 05:00:28 0° 215° (SW) 5,507 ? -18.0°
Reaches altitude 10° 05:03:56 10° 220° (SW) 4,543 ? -17.1°
Maximum altitude 05:15:13 50° 291° (WNW) 2,590 ? -14.4°
Drops below altitude 10° 05:26:57 10° 3° (N) 4,682 ? -11.5°
Sets 05:30:39 0° 9° (N) 5,686 ? -10.6°
